Time,TemperatureF,DewpointF,PressureIn,WindDirection,WindDirectionDegrees,WindSpeedMPH,WindSpeedGustMPH,Humidity,HourlyPrecipIn,Conditions,Clouds,dailyrainin,SoftwareType,DateUTC
2013-04-30 00:02:00,64.0,60.0,29.98,North,0,0.0,0.0,87,0.00,,,1.45,,2013-04-30 04:02:00,
2013-04-30 00:12:00,64.0,60.0,29.98,North,0,0.0,0.0,87,0.00,,,1.45,,2013-04-30 04:12:00,
2013-04-30 00:22:00,63.0,59.0,29.98,North,0,0.0,0.0,87,0.00,,,1.45,,2013-04-30 04:22:00,
2013-04-30 00:32:00,63.0,59.0,29.99,North,0,0.0,0.0,86,0.00,,,1.45,,2013-04-30 04:32:00,
2013-04-30 00:42:00,63.0,59.0,29.99,North,0,0.0,0.0,86,0.00,,,1.45,,2013-04-30 04:42:00,
2013-04-30 00:52:00,63.0,59.0,29.98,North,0,0.0,0.0,87,0.00,,,1.45,,2013-04-30 04:52:00,
2013-04-30 01:02:00,63.0,59.0,29.99,North,0,0.0,0.0,87,0.00,,,1.45,,2013-04-30 05:02:00,
2013-04-30 01:12:00,63.0,59.0,29.99,North,0,0.0,0.0,87,0.00,,,1.45,,2013-04-30 05:12:00,
2013-04-30 01:22:00,62.0,58.0,29.98,North,0,0.0,0.0,87,0.00,,,1.45,,2013-04-30 05:22:00,
2013-04-30 01:31:00,62.0,58.0,29.98,North,0,0.0,0.0,87,0.00,,,1.45,,2013-04-30 05:31:00,
2013-04-30 01:42:00,62.0,58.0,29.98,North,0,0.0,0.0,87,0.00,,,1.45,,2013-04-30 05:42:00,
2013-04-30 01:51:00,62.0,58.0,29.98,North,0,0.0,0.0,87,0.00,,,1.45,,2013-04-30 05:51:00,
2013-04-30 02:02:00,62.0,58.0,29.97,North,0,0.0,0.0,87,0.00,,,1.45,,2013-04-30 06:02:00,
2013-04-30 02:12:00,62.0,58.0,29.97,North,0,0.0,0.0,87,0.00,,,1.45,,2013-04-30 06:12:00,
2013-04-30 02:21:00,62.0,58.0,29.97,North,0,0.0,0.0,87,0.00,,,1.45,,2013-04-30 06:21:00,
2013-04-30 02:32:00,62.0,58.0,29.97,North,0,0.0,0.0,87,0.00,,,1.45,,2013-04-30 06:32:00,
2013-04-30 02:41:00,62.0,58.0,29.97,North,0,0.0,0.0,87,0.00,,,1.45,,2013-04-30 06:41:00,
2013-04-30 02:52:00,62.0,58.0,29.97,North,0,0.0,0.0,87,0.00,,,1.45,,2013-04-30 06:52:00,
2013-04-30 03:02:00,61.0,57.0,29.96,North,0,0.0,0.0,87,0.00,,,1.45,,2013-04-30 07:02:00,
2013-04-30 03:11:00,61.0,57.0,29.96,North,0,0.0,0.0,87,0.00,,,1.45,,2013-04-30 07:11:00,
2013-04-30 03:21:00,61.0,57.0,29.97,North,0,0.0,0.0,87,0.00,,,1.45,,2013-04-30 07:21:00,
2013-04-30 03:32:00,61.0,57.0,29.96,North,0,0.0,0.0,87,0.00,,,1.45,,2013-04-30 07:32:00,
2013-04-30 03:42:00,61.0,57.0,29.96,North,0,0.0,0.0,87,0.00,,,1.45,,2013-04-30 07:42:00,
2013-04-30 03:52:00,61.0,57.0,29.96,North,0,0.0,0.0,87,0.00,,,1.45,,2013-04-30 07:52:00,
2013-04-30 04:02:00,61.0,57.0,29.96,North,0,0.0,0.0,87,0.00,,,1.45,,2013-04-30 08:02:00,
2013-04-30 04:32:00,60.0,56.0,29.97,North,0,0.0,0.0,87,0.00,,,1.45,,2013-04-30 08:32:00,
2013-04-30 04:42:00,60.0,56.0,29.97,North,0,0.0,0.0,87,0.00,,,1.45,,2013-04-30 08:42:00,
2013-04-30 04:52:00,60.0,56.0,29.97,North,0,0.0,0.0,87,0.00,,,1.45,,2013-04-30 08:52:00,
2013-04-30 05:02:00,60.0,56.0,29.98,North,0,0.0,0.0,88,0.00,,,1.45,,2013-04-30 09:02:00,
2013-04-30 05:11:00,60.0,56.0,29.98,North,0,0.0,0.0,88,0.00,,,1.45,,2013-04-30 09:11:00,
2013-04-30 05:22:00,61.0,57.0,29.98,North,0,0.0,1.0,88,0.00,,,1.45,,2013-04-30 09:22:00,
2013-04-30 05:33:00,61.0,57.0,29.98,North,0,0.0,1.0,88,0.00,,,1.45,,2013-04-30 09:33:00,
2013-04-30 05:43:00,61.0,57.0,29.98,North,0,0.0,1.0,88,0.00,,,1.45,,2013-04-30 09:43:00,
2013-04-30 05:52:00,60.0,56.0,29.99,North,0,0.0,0.0,88,0.00,,,1.45,,2013-04-30 09:52:00,
2013-04-30 06:03:00,60.0,56.0,29.99,North,0,0.0,1.0,88,0.00,,,1.45,,2013-04-30 10:03:00,
2013-04-30 06:12:00,60.0,56.0,29.99,North,0,0.0,1.0,88,0.00,,,1.45,,2013-04-30 10:12:00,
2013-04-30 06:22:00,60.0,56.0,29.99,North,0,0.0,1.0,88,0.00,,,1.45,,2013-04-30 10:22:00,
2013-04-30 06:32:00,60.0,56.0,30.00,North,0,0.0,0.0,88,0.00,,,1.45,,2013-04-30 10:32:00,
2013-04-30 06:41:00,60.0,56.0,30.00,North,0,0.0,0.0,88,0.00,,,1.45,,2013-04-30 10:41:00,
2013-04-30 06:52:00,61.0,57.0,30.01,North,0,0.0,4.0,88,0.00,,,1.44,,2013-04-30 10:52:00,
2013-04-30 07:02:00,61.0,57.0,30.01,North,0,0.0,4.0,88,0.00,,,1.44,,2013-04-30 11:02:00,
2013-04-30 07:11:00,61.0,57.0,30.01,North,0,0.0,4.0,88,0.00,,,1.44,,2013-04-30 11:11:00,
2013-04-30 07:21:00,61.0,57.0,30.01,North,0,0.0,4.0,88,0.00,,,1.44,,2013-04-30 11:21:00,
2013-04-30 07:31:00,61.0,57.0,30.01,North,0,0.0,4.0,88,0.00,,,1.44,,2013-04-30 11:31:00,
2013-04-30 08:01:00,61.0,58.0,30.03,NE,56,1.0,4.0,89,0.00,,,1.41,,2013-04-30 12:01:00,
2013-04-30 08:11:00,61.0,58.0,30.03,NE,56,1.0,4.0,89,0.00,,,1.41,,2013-04-30 12:11:00,
2013-04-30 08:22:00,62.0,59.0,30.03,ENE,66,1.0,6.0,89,0.00,,,1.35,,2013-04-30 12:22:00,
2013-04-30 08:31:00,62.0,59.0,30.03,NE,34,1.0,5.0,89,0.00,,,1.32,,2013-04-30 12:31:00,
2013-04-30 08:41:00,62.0,59.0,30.03,NE,34,1.0,5.0,89,0.00,,,1.32,,2013-04-30 12:41:00,
2013-04-30 08:51:00,62.0,59.0,30.03,NE,35,1.0,5.0,89,0.00,,,1.26,,2013-04-30 12:51:00,
2013-04-30 09:01:00,62.0,59.0,30.03,NE,35,1.0,5.0,89,0.00,,,1.26,,2013-04-30 13:01:00,
2013-04-30 09:11:00,62.0,59.0,30.03,NE,35,1.0,5.0,89,0.00,,,1.26,,2013-04-30 13:11:00,
2013-04-30 09:21:00,62.0,59.0,30.03,NE,35,1.0,5.0,89,0.00,,,1.26,,2013-04-30 13:21:00,
2013-04-30 10:31:00,65.0,62.0,30.04,ESE,102,2.0,6.0,89,0.01,,,0.45,,2013-04-30 14:31:00,
2013-04-30 10:41:00,65.0,62.0,30.04,ESE,102,2.0,6.0,89,0.01,,,0.45,,2013-04-30 14:41:00,
2013-04-30 10:52:00,66.0,63.0,30.04,East,79,2.0,7.0,89,0.01,,,0.34,,2013-04-30 14:52:00,
2013-04-30 11:01:00,66.0,62.0,30.04,ENE,57,1.0,4.0,88,0.01,,,0.27,,2013-04-30 15:01:00,
2013-04-30 11:11:00,66.0,62.0,30.04,ENE,57,1.0,4.0,88,0.01,,,0.27,,2013-04-30 15:11:00,
2013-04-30 11:21:00,67.0,63.0,30.04,East,83,2.0,6.0,86,0.00,,,0.17,,2013-04-30 15:21:00,
2013-04-30 11:32:00,67.0,63.0,30.04,East,83,2.0,6.0,86,0.00,,,0.17,,2013-04-30 15:32:00,
2013-04-30 11:42:00,67.0,63.0,30.04,East,83,2.0,6.0,86,0.00,,,0.17,,2013-04-30 15:42:00,
2013-04-30 11:52:00,68.0,63.0,30.04,ENE,64,1.0,4.0,83,0.00,,,0.09,,2013-04-30 15:52:00,
2013-04-30 12:02:00,68.0,63.0,30.04,ENE,64,1.0,4.0,83,0.00,,,0.09,,2013-04-30 16:02:00,
2013-04-30 12:12:00,68.0,63.0,30.04,ENE,64,1.0,4.0,83,0.00,,,0.09,,2013-04-30 16:12:00,
2013-04-30 12:23:00,69.0,62.0,30.05,North,0,1.0,0.0,79,0.00,,,0.08,,2013-04-30 16:23:00,
2013-04-30 12:33:00,69.0,62.0,30.04,East,80,2.0,5.0,78,0.00,,,0.08,,2013-04-30 16:33:00,
2013-04-30 12:42:00,69.0,62.0,30.04,East,80,2.0,5.0,78,0.00,,,0.08,,2013-04-30 16:42:00,
2013-04-30 12:52:00,69.0,61.0,30.04,ENE,78,2.0,6.0,77,0.00,,,0.08,,2013-04-30 16:52:00,
2013-04-30 13:02:00,69.0,61.0,30.04,ENE,78,2.0,6.0,77,0.00,,,0.08,,2013-04-30 17:02:00,
2013-04-30 13:12:00,69.0,61.0,30.04,ENE,78,2.0,6.0,77,0.00,,,0.08,,2013-04-30 17:12:00,
2013-04-30 13:22:00,68.0,61.0,30.04,ENE,78,1.0,4.0,78,0.00,,,0.08,,2013-04-30 17:22:00,
2013-04-30 13:32:00,69.0,61.0,30.03,East,84,2.0,11.0,77,0.00,,,0.08,,2013-04-30 17:32:00,
2013-04-30 13:42:00,69.0,61.0,30.03,East,84,2.0,11.0,77,0.00,,,0.08,,2013-04-30 17:42:00,
2013-04-30 13:52:00,69.0,61.0,30.03,East,84,2.0,11.0,77,0.00,,,0.08,,2013-04-30 17:52:00,
2013-04-30 14:01:00,69.0,61.0,30.03,ENE,77,2.0,13.0,77,0.00,,,0.08,,2013-04-30 18:01:00,
2013-04-30 14:11:00,70.0,62.0,30.03,ENE,78,4.0,14.0,75,0.00,,,0.08,,2013-04-30 18:11:00,
2013-04-30 14:22:00,70.0,62.0,30.03,ENE,78,4.0,14.0,75,0.00,,,0.08,,2013-04-30 18:22:00,
2013-04-30 14:32:00,70.0,62.0,30.03,East,95,2.0,5.0,75,0.00,,,0.08,,2013-04-30 18:32:00,
2013-04-30 14:42:00,70.0,62.0,30.03,East,95,2.0,5.0,75,0.00,,,0.08,,2013-04-30 18:42:00,
2013-04-30 14:52:00,70.0,62.0,30.03,East,95,2.0,5.0,75,0.00,,,0.08,,2013-04-30 18:52:00,
2013-04-30 15:01:00,72.0,61.0,30.02,East,82,1.0,8.0,69,0.00,,,0.08,,2013-04-30 19:01:00,
2013-04-30 15:11:00,72.0,61.0,30.02,East,82,1.0,8.0,69,0.00,,,0.08,,2013-04-30 19:11:00,
2013-04-30 15:22:00,72.0,61.0,30.02,East,82,1.0,8.0,69,0.00,,,0.08,,2013-04-30 19:22:00,
2013-04-30 15:32:00,72.0,61.0,30.02,East,82,1.0,8.0,69,0.00,,,0.08,,2013-04-30 19:32:00,
2013-04-30 15:42:00,72.0,61.0,30.02,East,82,1.0,8.0,69,0.00,,,0.08,,2013-04-30 19:42:00,
2013-04-30 16:02:00,71.0,60.0,30.01,ENE,75,2.0,12.0,68,0.00,,,0.08,,2013-04-30 20:02:00,
2013-04-30 16:11:00,71.0,60.0,30.01,ENE,75,2.0,12.0,68,0.00,,,0.08,,2013-04-30 20:11:00,
2013-04-30 16:22:00,71.0,59.0,30.01,East,83,2.0,8.0,67,0.00,,,0.08,,2013-04-30 20:22:00,
2013-04-30 16:32:00,70.0,60.0,30.01,ENE,74,1.0,1.0,70,0.00,,,0.08,,2013-04-30 20:32:00,
2013-04-30 16:42:00,70.0,60.0,30.01,ENE,74,1.0,1.0,70,0.00,,,0.08,,2013-04-30 20:42:00,
2013-04-30 16:52:00,71.0,61.0,30.01,East,83,1.0,8.0,70,0.00,,,0.08,,2013-04-30 20:52:00,
2013-04-30 17:02:00,71.0,61.0,30.01,East,83,1.0,8.0,70,0.00,,,0.08,,2013-04-30 21:02:00,
2013-04-30 17:11:00,71.0,61.0,30.01,East,83,1.0,8.0,70,0.00,,,0.08,,2013-04-30 21:11:00,
2013-04-30 17:22:00,71.0,61.0,30.01,East,83,1.0,8.0,70,0.00,,,0.08,,2013-04-30 21:22:00,
2013-04-30 17:32:00,70.0,59.0,30.02,East,84,1.0,6.0,68,0.00,,,0.08,,2013-04-30 21:32:00,
2013-04-30 17:42:00,70.0,59.0,30.02,East,84,1.0,6.0,68,0.00,,,0.08,,2013-04-30 21:42:00,
2013-04-30 17:53:00,69.0,58.0,30.02,East,81,1.0,7.0,69,0.00,,,0.08,,2013-04-30 21:53:00,
2013-04-30 18:02:00,69.0,59.0,30.02,East,86,1.0,5.0,71,0.00,,,0.08,,2013-04-30 22:02:00,
2013-04-30 18:12:00,69.0,59.0,30.02,East,86,1.0,5.0,71,0.00,,,0.08,,2013-04-30 22:12:00,
2013-04-30 18:23:00,69.0,59.0,30.02,East,86,1.0,5.0,71,0.00,,,0.08,,2013-04-30 22:23:00,
2013-04-30 18:33:00,69.0,59.0,30.02,East,86,1.0,5.0,71,0.00,,,0.08,,2013-04-30 22:33:00,
2013-04-30 18:42:00,69.0,59.0,30.02,East,86,1.0,5.0,71,0.00,,,0.08,,2013-04-30 22:42:00,
2013-04-30 18:53:00,68.0,58.0,30.03,North,0,0.0,4.0,71,0.00,,,0.08,,2013-04-30 22:53:00,
2013-04-30 19:03:00,68.0,58.0,30.03,North,0,0.0,4.0,71,0.00,,,0.08,,2013-04-30 23:03:00,
2013-04-30 19:12:00,68.0,58.0,30.03,North,0,0.0,4.0,71,0.00,,,0.08,,2013-04-30 23:12:00,
2013-04-30 19:22:00,68.0,58.0,30.03,North,0,0.0,4.0,71,0.00,,,0.08,,2013-04-30 23:22:00,
2013-04-30 19:32:00,68.0,59.0,30.04,North,0,0.0,0.0,72,0.00,,,0.08,,2013-04-30 23:32:00,
2013-04-30 19:42:00,68.0,59.0,30.04,North,0,0.0,0.0,72,0.00,,,0.08,,2013-04-30 23:42:00,
2013-04-30 19:52:00,68.0,59.0,30.04,North,0,0.0,0.0,72,0.00,,,0.08,,2013-04-30 23:52:00,
2013-04-30 20:02:00,68.0,59.0,30.05,North,0,0.0,1.0,73,0.00,,,0.07,,2013-05-01 00:02:00,
2013-04-30 20:11:00,68.0,59.0,30.05,North,0,0.0,1.0,73,0.00,,,0.07,,2013-05-01 00:11:00,
2013-04-30 20:22:00,67.0,58.0,30.05,North,0,0.0,0.0,74,0.00,,,0.06,,2013-05-01 00:22:00,
2013-04-30 20:32:00,67.0,58.0,30.06,North,0,0.0,0.0,74,0.00,,,0.06,,2013-05-01 00:32:00,
2013-04-30 20:42:00,67.0,58.0,30.06,North,0,0.0,0.0,74,0.00,,,0.06,,2013-05-01 00:42:00,
2013-04-30 20:52:00,67.0,58.0,30.06,North,0,0.0,0.0,74,0.00,,,0.06,,2013-05-01 00:52:00,
2013-04-30 21:01:00,67.0,59.0,30.06,North,0,0.0,0.0,76,0.00,,,0.04,,2013-05-01 01:01:00,
2013-04-30 21:11:00,67.0,59.0,30.06,North,0,0.0,0.0,76,0.00,,,0.04,,2013-05-01 01:11:00,
2013-04-30 21:21:00,67.0,59.0,30.06,North,0,0.0,0.0,76,0.00,,,0.04,,2013-05-01 01:21:00,
2013-04-30 21:32:00,66.0,59.0,30.07,North,0,0.0,2.0,79,0.00,,,0.02,,2013-05-01 01:32:00,
2013-04-30 21:42:00,66.0,59.0,30.07,North,0,0.0,2.0,79,0.00,,,0.02,,2013-05-01 01:42:00,
2013-04-30 21:52:00,66.0,60.0,30.08,North,0,0.0,0.0,80,0.00,,,0.02,,2013-05-01 01:52:00,
2013-04-30 22:02:00,66.0,60.0,30.08,North,0,0.0,0.0,82,0.04,,,0.05,,2013-05-01 02:02:00,
2013-04-30 22:11:00,66.0,61.0,30.09,North,0,0.0,1.0,83,0.04,,,0.05,,2013-05-01 02:11:00,
2013-04-30 22:21:00,66.0,61.0,30.09,North,0,0.0,1.0,83,0.04,,,0.05,,2013-05-01 02:21:00,
2013-04-30 22:32:00,66.0,61.0,30.09,North,0,0.0,2.0,83,0.04,,,0.05,,2013-05-01 02:32:00,
2013-04-30 22:42:00,66.0,61.0,30.09,North,0,0.0,2.0,83,0.04,,,0.05,,2013-05-01 02:42:00,
2013-04-30 22:52:00,66.0,61.0,30.09,North,0,0.0,2.0,83,0.04,,,0.05,,2013-05-01 02:52:00,
2013-04-30 23:02:00,65.0,60.0,30.09,ENE,62,1.0,6.0,84,0.00,,,0.05,,2013-05-01 03:02:00,
2013-04-30 23:11:00,65.0,60.0,30.09,ENE,62,1.0,6.0,84,0.00,,,0.05,,2013-05-01 03:11:00,
2013-04-30 23:22:00,64.0,59.0,30.09,NE,48,1.0,6.0,84,0.00,,,0.05,,2013-05-01 03:22:00,
2013-04-30 23:33:00,64.0,59.0,30.09,NE,49,1.0,5.0,84,0.00,,,0.05,,2013-05-01 03:33:00,
2013-04-30 23:43:00,64.0,59.0,30.09,NE,49,1.0,5.0,84,0.00,,,0.05,,2013-05-01 03:43:00,
2013-04-30 23:53:00,64.0,59.0,30.09,NE,49,1.0,5.0,84,0.00,,,0.05,,2013-05-01 03:53:00,